Time,TemperatureF,DewpointF,PressureIn,WindDirection,WindDirectionDegrees,WindSpeedMPH,WindSpeedGustMPH,Humidity,HourlyPrecipIn,Conditions,Clouds,dailyrainin,SoftwareType,DateUTC
2013-03-16 00:09:00,31.2,31.0,29.89,NNW,340,13.0,14.0,97,0.00,,,0.00,weatherlink.com 1.10,2013-03-16 05:09:00,
2013-03-16 00:24:00,31.1,30.0,29.89,NNE,21,12.0,17.0,97,0.00,,,0.00,weatherlink.com 1.10,2013-03-16 05:24:00,
2013-03-16 00:40:00,31.1,30.0,29.89,NNW,342,7.0,15.0,97,0.00,,,0.00,weatherlink.com 1.10,2013-03-16 05:40:00,
2013-03-16 00:55:00,31.1,30.0,29.89,NNW,333,7.0,15.0,97,0.00,,,0.00,weatherlink.com 1.10,2013-03-16 05:55:00,
2013-03-16 01:10:00,31.2,30.0,29.89,NNW,342,12.0,15.0,96,0.00,,,0.00,weatherlink.com 1.10,2013-03-16 06:10:00,
2013-03-16 01:25:00,31.2,30.0,29.90,NW,320,7.0,16.0,96,0.00,,,0.00,weatherlink.com 1.10,2013-03-16 06:25:00,
2013-03-16 01:40:00,31.2,30.0,29.90,NNE,32,12.0,20.0,96,0.00,,,0.00,weatherlink.com 1.10,2013-03-16 06:40:00,
2013-03-16 01:55:00,30.7,30.0,29.91,North,6,14.0,19.0,96,0.00,,,0.00,weatherlink.com 1.10,2013-03-16 06:55:00,
2013-03-16 02:10:00,30.3,30.0,29.92,NNW,342,12.0,21.0,97,0.00,,,0.00,weatherlink.com 1.10,2013-03-16 07:10:00,
2013-03-16 02:25:00,29.9,29.0,29.93,NW,314,13.0,21.0,96,0.00,,,0.00,weatherlink.com 1.10,2013-03-16 07:25:00,
2013-03-16 02:40:00,29.7,29.0,29.93,NNW,342,17.0,18.0,96,0.00,,,0.00,weatherlink.com 1.10,2013-03-16 07:40:00,
2013-03-16 02:55:00,29.4,28.0,29.94,NW,322,12.0,20.0,96,0.00,,,0.00,weatherlink.com 1.10,2013-03-16 07:55:00,
2013-03-16 03:10:00,29.2,28.0,29.94,NW,308,10.0,22.0,96,0.00,,,0.00,weatherlink.com 1.10,2013-03-16 08:10:00,
2013-03-16 03:25:00,28.9,28.0,29.95,NW,314,10.0,18.0,96,0.00,,,0.00,weatherlink.com 1.10,2013-03-16 08:25:00,
2013-03-16 03:40:00,28.6,28.0,29.97,NW,316,15.0,20.0,96,0.00,,,0.00,weatherlink.com 1.10,2013-03-16 08:40:00,
2013-03-16 03:55:00,27.9,27.0,29.98,NNW,333,9.0,24.0,96,0.00,,,0.00,weatherlink.com 1.10,2013-03-16 08:55:00,
2013-03-16 04:10:00,27.0,26.0,29.98,East,98,19.0,21.0,96,0.00,,,0.00,weatherlink.com 1.10,2013-03-16 09:10:00,
2013-03-16 04:25:00,27.0,26.0,29.98,NW,308,16.0,21.0,96,0.00,,,0.00,weatherlink.com 1.10,2013-03-16 09:25:00,
2013-03-16 04:40:00,26.7,26.0,30.01,NW,315,17.0,23.0,96,0.00,,,0.00,weatherlink.com 1.10,2013-03-16 09:40:00,
2013-03-16 04:55:00,26.2,25.0,30.01,NNW,328,18.0,22.0,96,0.00,,,0.00,weatherlink.com 1.10,2013-03-16 09:55:00,
2013-03-16 05:10:00,26.1,25.0,30.02,NW,321,13.0,19.0,97,0.00,,,0.00,weatherlink.com 1.10,2013-03-16 10:10:00,
2013-03-16 05:25:00,25.8,25.0,30.03,NNE,25,13.0,21.0,97,0.00,,,0.00,weatherlink.com 1.10,2013-03-16 10:25:00,
2013-03-16 05:41:00,25.8,25.0,30.04,NNE,25,13.0,21.0,96,0.00,,,0.00,weatherlink.com 1.10,2013-03-16 10:41:00,
2013-03-16 05:56:00,25.5,25.0,30.05,NW,315,12.0,20.0,96,0.00,,,0.00,weatherlink.com 1.10,2013-03-16 10:56:00,
2013-03-16 06:11:00,25.0,24.0,30.05,North,351,18.0,21.0,96,0.00,,,0.00,weatherlink.com 1.10,2013-03-16 11:11:00,
2013-03-16 06:27:00,24.5,24.0,30.07,NNW,328,9.0,23.0,96,0.00,,,0.00,weatherlink.com 1.10,2013-03-16 11:27:00,
2013-03-16 07:11:00,23.5,22.0,30.09,NNW,347,16.0,21.0,93,0.00,,,0.00,weatherlink.com 1.10,2013-03-16 12:11:00,
2013-03-16 07:26:00,23.3,22.0,30.10,NW,308,15.0,23.0,93,0.00,,,0.00,weatherlink.com 1.10,2013-03-16 12:26:00,
2013-03-16 07:41:00,23.1,21.0,30.11,NNW,335,17.0,23.0,93,0.00,,,0.00,weatherlink.com 1.10,2013-03-16 12:41:00,
2013-03-16 07:56:00,22.9,21.0,30.12,NW,326,12.0,22.0,92,0.00,,,0.00,weatherlink.com 1.10,2013-03-16 12:56:00,
2013-03-16 08:11:00,22.7,21.0,30.12,NNW,346,23.0,26.0,92,0.00,,,0.00,weatherlink.com 1.10,2013-03-16 13:11:00,
2013-03-16 08:27:00,22.3,20.0,30.12,NNW,327,9.0,23.0,92,0.00,,,0.00,weatherlink.com 1.10,2013-03-16 13:27:00,
2013-03-16 08:41:00,22.0,20.0,30.13,NW,309,11.0,20.0,92,0.00,,,0.00,weatherlink.com 1.10,2013-03-16 13:41:00,
2013-03-16 08:56:00,22.1,20.0,30.13,NW,318,14.0,23.0,92,0.00,,,0.00,weatherlink.com 1.10,2013-03-16 13:56:00,
2013-03-16 09:11:00,21.9,20.0,30.14,North,354,16.0,21.0,92,0.00,,,0.00,weatherlink.com 1.10,2013-03-16 14:11:00,
2013-03-16 09:26:00,21.7,20.0,30.15,NW,322,14.0,21.0,92,0.00,,,0.00,weatherlink.com 1.10,2013-03-16 14:26:00,
2013-03-16 09:41:00,21.6,20.0,30.15,NNW,327,13.0,23.0,92,0.00,,,0.00,weatherlink.com 1.10,2013-03-16 14:41:00,
2013-03-16 09:56:00,21.6,19.0,30.15,NW,326,12.0,19.0,91,0.00,,,0.00,weatherlink.com 1.10,2013-03-16 14:56:00,
2013-03-16 10:11:00,21.5,19.0,30.15,North,353,8.0,21.0,91,0.00,,,0.00,weatherlink.com 1.10,2013-03-16 15:11:00,
2013-03-16 10:26:00,21.4,19.0,30.15,East,101,12.0,20.0,90,0.00,,,0.00,weatherlink.com 1.10,2013-03-16 15:26:00,
2013-03-16 10:57:00,21.7,19.0,30.16,North,10,18.0,21.0,88,0.00,,,0.00,weatherlink.com 1.10,2013-03-16 15:57:00,
2013-03-16 11:11:00,22.3,19.0,30.16,NE,39,14.0,20.0,86,0.00,,,0.00,weatherlink.com 1.10,2013-03-16 16:11:00,
2013-03-16 11:26:00,22.9,20.0,30.16,North,11,13.0,22.0,87,0.00,,,0.00,weatherlink.com 1.10,2013-03-16 16:26:00,
2013-03-16 11:42:00,22.0,18.0,30.16,NNW,347,13.0,19.0,85,0.00,,,0.00,weatherlink.com 1.10,2013-03-16 16:42:00,
2013-03-16 11:57:00,22.0,19.0,30.18,NNW,331,12.0,23.0,86,0.00,,,0.00,weatherlink.com 1.10,2013-03-16 16:57:00,
2013-03-16 12:12:00,22.3,19.0,30.18,North,358,14.0,19.0,85,0.00,,,0.00,weatherlink.com 1.10,2013-03-16 17:12:00,
2013-03-16 12:27:00,22.4,18.0,30.19,NNW,335,10.0,17.0,84,0.00,,,0.00,weatherlink.com 1.10,2013-03-16 17:27:00,
2013-03-16 12:42:00,22.2,18.0,30.19,NNW,347,8.0,16.0,84,0.00,,,0.00,weatherlink.com 1.10,2013-03-16 17:42:00,
2013-03-16 12:57:00,23.2,20.0,30.19,NNE,16,12.0,16.0,86,0.00,,,0.00,weatherlink.com 1.10,2013-03-16 17:57:00,
2013-03-16 13:12:00,22.8,19.0,30.20,WNW,301,7.0,15.0,84,0.00,,,0.00,weatherlink.com 1.10,2013-03-16 18:12:00,
2013-03-16 13:27:00,22.9,19.0,30.19,NNE,13,9.0,17.0,83,0.00,,,0.00,weatherlink.com 1.10,2013-03-16 18:27:00,
2013-03-16 13:57:00,24.1,19.0,30.18,North,358,10.0,14.0,82,0.00,,,0.00,weatherlink.com 1.10,2013-03-16 18:57:00,
2013-03-16 14:12:00,23.9,19.0,30.18,North,350,9.0,16.0,81,0.00,,,0.00,weatherlink.com 1.10,2013-03-16 19:12:00,
2013-03-16 14:27:00,24.1,20.0,30.16,NNE,32,7.0,17.0,83,0.00,,,0.00,weatherlink.com 1.10,2013-03-16 19:27:00,
2013-03-16 14:42:00,24.2,19.0,30.16,NNE,18,9.0,17.0,80,0.00,,,0.00,weatherlink.com 1.10,2013-03-16 19:42:00,
2013-03-16 14:57:00,24.7,19.0,30.16,NW,322,17.0,17.0,80,0.00,,,0.00,weatherlink.com 1.10,2013-03-16 19:57:00,
2013-03-16 15:12:00,23.5,19.0,30.16,NNE,12,11.0,21.0,82,0.00,,,0.00,weatherlink.com 1.10,2013-03-16 20:12:00,
2013-03-16 15:27:00,24.0,19.0,30.16,NW,319,7.0,16.0,80,0.00,,,0.00,weatherlink.com 1.10,2013-03-16 20:27:00,
2013-03-16 15:42:00,24.2,19.0,30.16,NNW,333,13.0,16.0,79,0.00,,,0.00,weatherlink.com 1.10,2013-03-16 20:42:00,
2013-03-16 15:57:00,22.7,18.0,30.17,NNE,30,12.0,15.0,81,0.00,,,0.00,weatherlink.com 1.10,2013-03-16 20:57:00,
2013-03-16 16:12:00,22.7,18.0,30.17,North,358,11.0,14.0,82,0.00,,,0.00,weatherlink.com 1.10,2013-03-16 21:12:00,
2013-03-16 16:27:00,24.3,19.0,30.17,NNW,344,8.0,14.0,80,0.00,,,0.00,weatherlink.com 1.10,2013-03-16 21:27:00,
2013-03-16 16:42:00,24.2,19.0,30.17,NW,324,10.0,17.0,79,0.00,,,0.00,weatherlink.com 1.10,2013-03-16 21:42:00,
2013-03-16 16:57:00,24.2,18.0,30.17,NNE,17,11.0,15.0,77,0.00,,,0.00,weatherlink.com 1.10,2013-03-16 21:57:00,
2013-03-16 17:12:00,24.0,18.0,30.18,NW,312,8.0,17.0,77,0.00,,,0.00,weatherlink.com 1.10,2013-03-16 22:12:00,
2013-03-16 17:27:00,23.7,18.0,30.18,NW,323,12.0,16.0,79,0.00,,,0.00,weatherlink.com 1.10,2013-03-16 22:27:00,
2013-03-16 17:42:00,23.4,18.0,30.18,NW,309,5.0,15.0,78,0.00,,,0.00,weatherlink.com 1.10,2013-03-16 22:42:00,
2013-03-16 17:57:00,22.7,17.0,30.18,NNW,340,8.0,16.0,80,0.00,,,0.00,weatherlink.com 1.10,2013-03-16 22:57:00,
2013-03-16 18:12:00,22.0,17.0,30.18,North,3,8.0,16.0,81,0.00,,,0.00,weatherlink.com 1.10,2013-03-16 23:12:00,
2013-03-16 18:27:00,21.8,17.0,30.18,NW,312,8.0,14.0,81,0.00,,,0.00,weatherlink.com 1.10,2013-03-16 23:27:00,
2013-03-16 18:42:00,21.6,17.0,30.19,NNW,342,6.0,14.0,82,0.00,,,0.00,weatherlink.com 1.10,2013-03-16 23:42:00,
2013-03-16 18:57:00,21.4,16.0,30.19,WSW,250,5.0,14.0,81,0.00,,,0.00,weatherlink.com 1.10,2013-03-16 23:57:00,
2013-03-16 19:12:00,21.0,16.0,30.19,NNE,23,10.0,14.0,81,0.00,,,0.00,weatherlink.com 1.10,2013-03-17 00:12:00,
2013-03-16 19:27:00,20.4,16.0,30.20,NNE,12,9.0,16.0,82,0.00,,,0.00,weatherlink.com 1.10,2013-03-17 00:27:00,
2013-03-16 19:42:00,19.9,16.0,30.20,NNW,333,9.0,16.0,83,0.00,,,0.00,weatherlink.com 1.10,2013-03-17 00:42:00,
2013-03-16 19:57:00,19.3,15.0,30.21,NNE,12,14.0,18.0,82,0.00,,,0.00,weatherlink.com 1.10,2013-03-17 00:57:00,
2013-03-16 20:12:00,19.0,15.0,30.22,NNE,14,11.0,18.0,83,0.00,,,0.00,weatherlink.com 1.10,2013-03-17 01:12:00,
2013-03-16 20:27:00,18.6,14.0,30.22,NNE,18,10.0,16.0,82,0.00,,,0.00,weatherlink.com 1.10,2013-03-17 01:27:00,
2013-03-16 20:42:00,18.2,14.0,30.23,NNW,347,14.0,17.0,83,0.00,,,0.00,weatherlink.com 1.10,2013-03-17 01:42:00,
2013-03-16 20:57:00,18.1,14.0,30.25,North,2,11.0,14.0,85,0.00,,,0.00,weatherlink.com 1.10,2013-03-17 01:57:00,
2013-03-16 21:12:00,17.8,14.0,30.26,North,357,12.0,15.0,83,0.00,,,0.00,weatherlink.com 1.10,2013-03-17 02:12:00,
2013-03-16 21:27:00,17.4,13.0,30.27,NNW,342,9.0,12.0,84,0.00,,,0.00,weatherlink.com 1.10,2013-03-17 02:27:00,
2013-03-16 21:42:00,17.1,13.0,30.28,NNW,341,7.0,14.0,83,0.00,,,0.00,weatherlink.com 1.10,2013-03-17 02:42:00,
2013-03-16 21:57:00,17.1,13.0,30.28,NW,318,10.0,14.0,84,0.00,,,0.00,weatherlink.com 1.10,2013-03-17 02:57:00,
2013-03-16 22:13:00,16.6,13.0,30.28,NNW,331,7.0,15.0,84,0.00,,,0.00,weatherlink.com 1.10,2013-03-17 03:13:00,
2013-03-16 22:28:00,16.5,13.0,30.28,NNW,340,10.0,14.0,84,0.00,,,0.00,weatherlink.com 1.10,2013-03-17 03:28:00,
2013-03-16 22:43:00,16.3,12.0,30.28,NW,309,9.0,14.0,84,0.00,,,0.00,weatherlink.com 1.10,2013-03-17 03:43:00,
2013-03-16 22:58:00,16.1,12.0,30.28,North,9,8.0,13.0,83,0.00,,,0.00,weatherlink.com 1.10,2013-03-17 03:58:00,
2013-03-16 23:13:00,15.9,12.0,30.28,NNE,21,13.0,13.0,83,0.00,,,0.00,weatherlink.com 1.10,2013-03-17 04:13:00,
2013-03-16 23:28:00,15.6,11.0,30.28,North,11,8.0,13.0,83,0.00,,,0.00,weatherlink.com 1.10,2013-03-17 04:28:00,
2013-03-16 23:43:00,15.5,11.0,30.28,NNW,338,9.0,14.0,82,0.00,,,0.00,weatherlink.com 1.10,2013-03-17 04:43:00,
2013-03-16 23:58:00,15.4,11.0,30.28,NNW,338,7.0,12.0,83,0.00,,,0.00,weatherlink.com 1.10,2013-03-17 04:58:00,